Simultaneous Nadir Overpasses (SNOs) Predictions

Prediction of SNOs between AQUA and NPP Satellite Orbit:

Table of predicted SNOs for the next 14.0 days since TLE Epoch: 3/29/2019
Index Date (AQUA) Time (AQUA) Lat,Lon (AQUA) SZA (AQUA ) Date (NPP) Time (NPP) Lat,Lon (NPP) SZA (NPP ) Distance(km) Time Diff (sec)
1 03/30/2019 06:22:14 -75.71, 142.71 85.85 03/30/2019 06:21:22 -75.70, 142.69 85.80 0.57 52
2 03/30/2019 07:11:18 76.75, -46.29 92.93 03/30/2019 07:11:43 76.75, -46.28 92.91 0.20 25
3 04/01/2019 22:38:41 -75.87,-100.93 87.09 04/01/2019 22:38:12 -75.86,-101.03 87.04 2.88 29
4 04/01/2019 23:27:47 76.81, 69.81 91.80 04/01/2019 23:28:35 76.80, 69.71 91.78 2.69 48
5 04/04/2019 14:55:00 -76.41, 16.66 88.76 04/04/2019 14:54:53 -76.42, 16.70 88.77 1.06 7
6 04/04/2019 15:44:08 77.25,-172.70 90.24 04/04/2019 15:45:18 77.25,-172.66 90.17 0.88 70
7 04/07/2019 06:22:22 75.42, -38.13 91.37 04/07/2019 06:21:21 75.41, -38.20 91.44 2.15 61
8 04/07/2019 07:11:25 -76.61, 133.20 90.02 04/07/2019 07:11:41 -76.61, 133.18 90.03 0.50 16
9 04/09/2019 22:38:39 76.06, 79.65 89.62 04/09/2019 22:38:00 76.07, 79.71 89.63 1.71 39




NCC Satellite Simultaneous Nadir Overpasses (SNOs) Prediction Service
